Cody, WY

4:57 AM MST on November 22, 2017 (GMT -0700)
Yellowstone Regional

Weather History for KCOD - December, 2013

Change the Weather History Date:

Monday, December 30, 2013

  Actual Average Record
Temperature  
Mean Temperature 35 °F -  
Max Temperature 42 °F 32 °F 65 °F (1937)
Min Temperature 28 °F 8 °F -29 °F (1990)
Degree Days  
Heating Degree Days 30    
Moisture  
Dew Point 16 °F    
Average Humidity 42    
Maximum Humidity 51    
Minimum Humidity 33    
Precipitation  
Precipitation 0.00 in - - ()
Sea Level Pressure  
Sea Level Pressure 30.04 in    
Wind  
Wind Speed 11 mph (West)    
Max Wind Speed 25 mph    
Max Gust Speed 40 mph    
Visibility 10 miles    
Events      
Averages and records for this station are not official NWS values.
T = Trace of Precipitation, MM = Missing Value Source: NWS Daily Summary

Daily Weather History Graph

Daily Weather History Graph

Search for Another Location

Airport or City:

Trip Planner

Search our weather history database for the weather conditions in past years. The results will help you decide how hot, cold, wet, or windy it might be!

Date:

Astronomy

Dec. 30, 2013 Rise Set
Actual Time 7:52 AM MST 4:45 PM MST
Civil Twilight 7:19 AM MST 5:18 PM MST
Nautical Twilight 6:42 AM MST 5:55 PM MST
Astronomical Twilight 6:06 AM MST 6:30 PM MST
Moon 5:43 AM MST (12/30) 3:23 PM MST (12/30)
Length of Visible Light 9h 59m
Length of Day
8h 52m
Waning Crescent, 4% of the Moon is Illuminated
Dec 30
Waning Crescent
Jan 1
New
Jan 7
First Quarter
Jan 15
Full
Jan 23
Last Quarter

Hourly Weather History & Observations

Time (MST) Temp. Windchill Dew Point Humidity Pressure Visibility Wind Dir Wind Speed Gust Speed Precip Events Conditions
12:15 AM 33.8 °F 25.8 °F 14.0 °F 44% 29.99 in 10.0 mi West 10.4 mph 19.6 mph N/A   Mostly Cloudy
12:35 AM 33.8 °F 27.7 °F 14.0 °F 44% 29.99 in 10.0 mi NW 6.9 mph - N/A   Partly Cloudy
12:55 AM 33.8 °F 27.0 °F 14.0 °F 44% 30.00 in 10.0 mi WNW 8.1 mph - N/A   Scattered Clouds
1:15 AM 33.8 °F 25.8 °F 14.0 °F 44% 30.01 in 10.0 mi WSW 10.4 mph - N/A   Overcast
1:35 AM 33.8 °F 24.8 °F 14.0 °F 44% 30.01 in 10.0 mi WSW 12.7 mph 17.3 mph N/A   Overcast
1:55 AM 33.8 °F 25.3 °F 14.0 °F 44% 30.02 in 10.0 mi WSW 11.5 mph - N/A   Mostly Cloudy
2:15 AM 33.8 °F 27.7 °F 14.0 °F 44% 30.03 in 10.0 mi West 6.9 mph - N/A   Mostly Cloudy
2:35 AM 33.8 °F 26.4 °F 15.8 °F 48% 30.03 in 10.0 mi WSW 9.2 mph - N/A   Overcast
2:55 AM 33.8 °F 27.0 °F 15.8 °F 48% 30.03 in 10.0 mi WSW 8.1 mph - N/A   Mostly Cloudy
3:15 AM 32.0 °F - 14.0 °F 48% 30.05 in 10.0 mi Calm Calm - N/A   Mostly Cloudy
3:55 AM 33.8 °F 29.6 °F 14.0 °F 44% 30.06 in 10.0 mi ESE 4.6 mph - N/A   Overcast
4:15 AM 33.8 °F 27.7 °F 15.8 °F 48% 30.06 in 10.0 mi SE 6.9 mph - N/A   Overcast
4:36 AM 32.0 °F - 15.8 °F 51% 30.07 in 10.0 mi Calm Calm - N/A   Overcast
4:55 AM 33.8 °F 30.8 °F 15.8 °F 48% 30.08 in 10.0 mi West 3.5 mph - N/A   Overcast
5:15 AM 33.8 °F 29.6 °F 15.8 °F 48% 30.08 in 10.0 mi WSW 4.6 mph - N/A   Overcast
5:35 AM 35.6 °F 29.2 °F 15.8 °F 44% 30.09 in 10.0 mi West 8.1 mph - N/A   Overcast
5:55 AM 35.6 °F 29.9 °F 15.8 °F 44% 30.09 in 10.0 mi WNW 6.9 mph 16.1 mph N/A   Overcast
6:15 AM 32.0 °F 24.8 °F 15.8 °F 51% 30.09 in 10.0 mi West 8.1 mph - N/A   Mostly Cloudy
6:35 AM 28.4 °F 23.3 °F 12.2 °F 51% 30.09 in 10.0 mi NW 4.6 mph - N/A   Clear
6:55 AM 33.8 °F 28.6 °F 15.8 °F 48% 30.10 in 10.0 mi West 5.8 mph - N/A   Clear
7:15 AM 33.8 °F 27.0 °F 15.8 °F 48% 30.10 in 10.0 mi WNW 8.1 mph - N/A   Clear
7:35 AM 33.8 °F 25.8 °F 15.8 °F 48% 30.10 in 10.0 mi WNW 10.4 mph 16.1 mph N/A   Clear
7:55 AM 33.8 °F 25.3 °F 15.8 °F 48% 30.10 in 10.0 mi West 11.5 mph 16.1 mph N/A   Clear
8:35 AM 35.6 °F 25.9 °F 15.8 °F 44% 30.11 in 10.0 mi West 16.1 mph 23.0 mph N/A   Clear
8:55 AM 35.6 °F 26.2 °F 15.8 °F 44% 30.12 in 10.0 mi West 15.0 mph 20.7 mph N/A   Clear
9:15 AM 37.4 °F 29.3 °F 15.8 °F 41% 30.12 in 10.0 mi West 12.7 mph 26.5 mph N/A   Clear
9:35 AM 37.4 °F 30.8 °F 17.6 °F 45% 30.13 in 10.0 mi West 9.2 mph 19.6 mph N/A   Clear
9:55 AM 39.2 °F 33.6 °F 17.6 °F 42% 30.13 in 10.0 mi WNW 8.1 mph 17.3 mph N/A   Clear
10:15 AM 39.2 °F 30.8 °F 15.8 °F 39% 30.13 in 10.0 mi West 15.0 mph 25.3 mph N/A   Clear
10:35 AM 39.2 °F 29.8 °F 15.8 °F 39% 30.13 in 10.0 mi West 18.4 mph 29.9 mph N/A   Clear
10:55 AM 41.0 °F 33.1 °F 17.6 °F 39% 30.12 in 10.0 mi West 15.0 mph 26.5 mph N/A   Clear
11:15 AM 41.0 °F 32.2 °F 15.8 °F 36% 30.11 in 10.0 mi WSW 18.4 mph 26.5 mph N/A   Clear
11:35 AM 41.0 °F 33.1 °F 15.8 °F 36% 30.10 in 10.0 mi West 15.0 mph 31.1 mph N/A   Clear
11:55 AM 42.8 °F 34.0 °F 15.8 °F 34% 30.09 in 10.0 mi WSW 20.7 mph 28.8 mph N/A   Clear
12:35 PM 41.0 °F 32.2 °F 15.8 °F 36% 30.07 in 10.0 mi West 18.4 mph 33.4 mph N/A   Clear
12:55 PM 41.0 °F 31.9 °F 15.8 °F 36% 30.06 in 10.0 mi WSW 19.6 mph 28.8 mph N/A   Clear
1:15 PM 42.8 °F 34.5 °F 15.8 °F 34% 30.06 in 10.0 mi West 18.4 mph 28.8 mph N/A   Clear
1:35 PM 42.8 °F 37.0 °F 15.8 °F 34% 30.05 in 10.0 mi West 10.4 mph 29.9 mph N/A   Clear
1:55 PM 41.0 °F 31.9 °F 14.0 °F 33% 30.05 in 10.0 mi WSW 19.6 mph 25.3 mph N/A   Clear
2:15 PM 41.0 °F 32.5 °F 15.8 °F 36% 30.04 in 10.0 mi WSW 17.3 mph 31.1 mph N/A   Clear
2:35 PM 42.8 °F 34.3 °F 15.8 °F 34% 30.04 in 10.0 mi WSW 19.6 mph 28.8 mph N/A   Clear
2:55 PM 42.8 °F 34.5 °F 15.8 °F 34% 30.04 in 10.0 mi West 18.4 mph 29.9 mph N/A   Clear
3:15 PM 41.0 °F 32.8 °F 15.8 °F 36% 30.04 in 10.0 mi West 16.1 mph 27.6 mph N/A   Clear
3:35 PM 41.0 °F 33.1 °F 15.8 °F 36% 30.05 in 10.0 mi West 15.0 mph 32.2 mph N/A   Clear
3:55 PM 41.0 °F 31.6 °F 15.8 °F 36% 30.04 in 10.0 mi WSW 20.7 mph 31.1 mph N/A   Clear
4:15 PM 39.2 °F 28.5 °F 15.8 °F 39% 30.04 in 10.0 mi West 24.2 mph 33.4 mph N/A   Clear
4:35 PM 39.2 °F 30.2 °F 15.8 °F 39% 30.04 in 10.0 mi West 17.3 mph 29.9 mph N/A   Clear
4:55 PM 39.2 °F 30.5 °F 17.6 °F 42% 30.04 in 10.0 mi West 16.1 mph 29.9 mph N/A   Clear
5:15 PM 39.2 °F 30.5 °F 15.8 °F 39% 30.04 in 10.0 mi West 16.1 mph 25.3 mph N/A   Clear
5:35 PM 39.2 °F 29.0 °F 17.6 °F 42% 30.04 in 10.0 mi West 21.9 mph 31.1 mph N/A   Clear
5:55 PM 39.2 °F 32.5 °F 17.6 °F 42% 30.04 in 10.0 mi West 10.4 mph 26.5 mph N/A   Clear
6:15 PM 39.2 °F 29.8 °F 17.6 °F 42% 30.03 in 10.0 mi West 18.4 mph 32.2 mph N/A   Clear
6:35 PM 39.2 °F 29.8 °F 17.6 °F 42% 30.02 in 10.0 mi West 18.4 mph 36.8 mph N/A   Scattered Clouds
6:55 PM 39.2 °F 31.2 °F 17.6 °F 42% 30.02 in 10.0 mi West 13.8 mph 39.1 mph N/A   Partly Cloudy
7:15 PM 39.2 °F 30.2 °F 17.6 °F 42% 30.02 in 10.0 mi WNW 17.3 mph 28.8 mph N/A   Clear
7:35 PM 39.2 °F 29.6 °F 17.6 °F 42% 30.01 in 10.0 mi West 19.6 mph 32.2 mph N/A   Clear
7:55 PM 39.2 °F 29.3 °F 17.6 °F 42% 30.00 in 10.0 mi West 20.7 mph 35.7 mph N/A   Clear
8:15 PM 39.2 °F 30.8 °F 17.6 °F 42% 30.00 in 10.0 mi West 15.0 mph 33.4 mph N/A   Clear
8:35 PM 39.2 °F 30.2 °F 17.6 °F 42% 30.00 in 10.0 mi West 17.3 mph 23.0 mph N/A   Clear
8:55 PM 39.2 °F 31.6 °F 17.6 °F 42% 29.98 in 10.0 mi West 12.7 mph 24.2 mph N/A   Clear
9:15 PM 39.2 °F 34.2 °F 17.6 °F 42% 29.98 in 10.0 mi NW 6.9 mph 17.3 mph N/A   Clear
9:35 PM 39.2 °F 35.9 °F 17.6 °F 42% 29.97 in 10.0 mi NW 4.6 mph - N/A   Clear
9:55 PM 39.2 °F 34.2 °F 19.4 °F 45% 29.96 in 10.0 mi West 6.9 mph 16.1 mph N/A   Clear
10:15 PM 39.2 °F 32.5 °F 17.6 °F 42% 29.96 in 10.0 mi WNW 10.4 mph 16.1 mph N/A   Clear
10:35 PM 39.2 °F 32.0 °F 19.4 °F 45% 29.95 in 10.0 mi WNW 11.5 mph 17.3 mph N/A   Clear
10:55 PM 41.0 °F 31.6 °F 21.2 °F 45% 29.93 in 10.0 mi WSW 20.7 mph 36.8 mph N/A   Clear
11:15 PM 41.0 °F 30.7 °F 21.2 °F 45% 29.93 in 10.0 mi West 25.3 mph 38.0 mph N/A   Clear
11:35 PM 39.2 °F 29.0 °F 21.2 °F 49% 29.92 in 10.0 mi WSW 21.9 mph 40.3 mph N/A   Partly Cloudy